TimeMST,TemperatureF,Dew PointF,Humidity,Sea Level PressureIn,VisibilityMPH,Wind Direction,Wind SpeedMPH,Gust SpeedMPH,PrecipitationIn,Events,Conditions,WindDirDegrees,DateUTC
12:53 AM,10.9,7.0,84,30.26,10.0,Calm,Calm,-,N/A,,Clear,0,2013-01-23 07:53:00
1:53 AM,14.0,10.9,88,30.25,10.0,Calm,Calm,-,N/A,,Clear,0,2013-01-23 08:53:00
2:53 AM,12.0,8.1,84,30.26,10.0,Calm,Calm,-,N/A,,Clear,0,2013-01-23 09:53:00
3:53 AM,6.1,3.9,91,30.28,10.0,Calm,Calm,-,N/A,,Clear,0,2013-01-23 10:53:00
4:53 AM,10.9,7.0,84,30.28,10.0,Calm,Calm,-,N/A,,Clear,0,2013-01-23 11:53:00
5:53 AM,12.9,10.0,88,30.27,10.0,Calm,Calm,-,N/A,,Clear,0,2013-01-23 12:53:00
6:53 AM,10.0,7.0,87,30.31,10.0,Calm,Calm,-,N/A,,Clear,0,2013-01-23 13:53:00
7:53 AM,10.9,6.1,81,30.31,10.0,Calm,Calm,-,N/A,,Clear,0,2013-01-23 14:53:00
8:53 AM,14.0,10.0,84,30.30,10.0,Calm,Calm,-,N/A,,Clear,0,2013-01-23 15:53:00
9:53 AM,15.1,12.0,88,30.32,10.0,Calm,Calm,-,N/A,,Clear,0,2013-01-23 16:53:00
10:53 AM,21.9,17.1,82,30.29,10.0,Calm,Calm,-,N/A,,Clear,0,2013-01-23 17:53:00
11:53 AM,26.1,17.1,69,30.27,10.0,Calm,Calm,-,N/A,,Clear,0,2013-01-23 18:53:00
12:53 PM,28.0,18.0,66,30.23,10.0,Calm,Calm,-,N/A,,Clear,0,2013-01-23 19:53:00
1:53 PM,28.0,18.0,66,30.21,10.0,Calm,Calm,-,N/A,,Clear,0,2013-01-23 20:53:00
2:53 PM,28.9,19.0,67,30.20,10.0,Calm,Calm,-,N/A,,Clear,0,2013-01-23 21:53:00
3:53 PM,28.0,19.0,69,30.22,10.0,Calm,Calm,-,N/A,,Clear,0,2013-01-23 22:53:00
4:53 PM,25.0,19.0,78,30.21,10.0,Calm,Calm,-,N/A,,Clear,0,2013-01-23 23:53:00
5:53 PM,23.0,19.0,85,30.19,10.0,SSW,5.8,-,N/A,,Clear,210,2013-01-24 00:53:00
6:53 PM,19.0,16.0,88,30.22,10.0,Calm,Calm,-,N/A,,Clear,0,2013-01-24 01:53:00
7:53 PM,21.9,18.0,85,30.20,10.0,East,3.5,-,N/A,,Clear,100,2013-01-24 02:53:00
8:53 PM,21.0,17.1,85,30.19,10.0,WNW,3.5,-,N/A,,Clear,300,2013-01-24 03:53:00
9:53 PM,19.9,17.1,89,30.18,10.0,Calm,Calm,-,N/A,,Clear,0,2013-01-24 04:53:00
10:53 PM,19.9,17.1,89,30.16,10.0,Calm,Calm,-,N/A,,Clear,0,2013-01-24 05:53:00
11:53 PM,19.0,16.0,88,30.15,10.0,Calm,Calm,-,N/A,,Clear,0,2013-01-24 06:53:00